Location: ???????
(42.2710°N, 44.6724°E)
Time: 20:44:26
(UTC+00:00)

Daily predictions for brighter satellites

Satellite Brightness Start Highest point End
(mag) Time Altitude Azimuth Time Altitude Azimuth Time Altitude Azimuth
Meteor 1-15 Rocket 4.3 14:12:07 10° N 14:17:56 68° ENE 14:23:35 10° SSE
Cosmos 2278 Rocket 3.2 14:15:14 10° N 14:19:54 25° NE 14:24:31 10° ESE
Cosmos 1943 Rocket 3.4 14:16:14 10° N 14:20:24 20° NE 14:24:31 10° E
ATLAS CENTAUR R/B 1.3 14:16:38 10° NNW 14:20:43 79° NE 14:24:48 10° SE
ARGOS Delta rocket 3.9 14:19:30 10° SSE 14:24:09 54° ENE 14:28:37 10° N
Cosmos 2219 Rocket 2.8 14:19:29 10° SW 14:24:58 59° WNW 14:30:32 10° NNE
CSL-04 DEB 4.3 14:22:50 10° SSE 14:26:41 61° ENE 14:30:29 10° N
Cosmos 540 Rocket 4.2 14:23:54 10° SSE 14:28:26 33° E 14:33:00 10° NE
CZ-2D R/B 3.7 14:25:48 10° S 14:30:03 80° WSW 14:34:20 10° NNW
COSMO-SKYMED 1 3.5 14:27:17 10° NE 14:31:06 29° E 14:34:53 10° SSE
Cosmos 2279 Rocket 4.4 14:26:46 10° N 14:32:35 41° ENE 14:38:22 10° SE
Cosmos 2322 3.7 14:28:46 10° SSW 14:34:29 84° ESE 14:40:14 10° NNE
Meteor 1-31 Rocket 4.0 14:35:01 10° ESE 14:37:27 18° ENE 14:39:55 10° NNE
ATLAS 2AS CENTAUR R/B 4.1 14:36:49 10° NNW 14:41:11 17° NNE 14:45:02 11° ENE
SL-14 R/B 4.3 14:37:43 10° SSW 14:41:20 45° WNW 14:44:58 10° N
Lacrosse 5 rocket 2.6 14:37:48 10° WNW 14:41:42 44° SW 14:45:34 10° SSE
Cosmos 292 Rocket 3.7 14:37:59 10° NNW 14:42:46 85° ENE 14:47:29 10° SSE
Meteor 1-23 Rocket 4.3 14:37:38 10° S 14:43:15 87° W 14:48:52 10° N
Cosmos 2228 Rocket 3.8 14:39:39 10° SSE 14:43:41 33° E 14:47:47 10° NNE
ISS -2.5 14:41:10 10° SSW 14:44:04 28° SE 14:46:21 14° E
IGS 5A 3.3 14:40:59 10° SSE 14:44:59 74° ENE 14:49:00 10° N
ACS3 Solar Sail 2.4 14:43:33 10° SE 14:49:18 37° ENE 14:55:06 10° N
Cosmos 2344 3.5 14:42:12 10° SSW 14:50:10 85° SE 14:57:27 10° NE
Cosmos 1455 1.6 14:48:42 10° N 14:51:56 86° E 14:55:07 10° S
YAOGAN 1 3.5 14:48:41 10° ESE 14:52:11 26° ENE 14:55:43 10° NNE
Cosmos 1758 4.3 14:48:35 10° NNW 14:52:18 48° W 14:56:01 10° SSW
Cosmos 1733 Rocket 3.4 14:51:44 10° N 14:55:54 41° ENE 15:00:03 10° SSE
SL-16 R/B 4.0 14:55:01 10° ESE 14:56:00 11° E 14:56:00 11° E
Cosmos 1980 4.0 14:52:49 10° S 14:58:11 46° ESE 15:03:26 11° NE
Okean 3 3.5 14:55:55 10° S 14:59:52 53° E 15:03:54 10° NNE
Cosmos 990 Rocket 4.0 14:55:59 10° NNW 15:01:11 61° ENE 15:06:21 10° SSE
Cosmos 1634 Rocket 4.2 14:56:39 10° N 15:03:00 79° W 15:09:17 10° S
CZ-4 R/B 4.2 15:04:02 10° SSE 15:08:02 73° ENE 15:12:03 10° N
COSMOS 2428 3.1 15:02:28 10° SW 15:08:06 65° WNW 15:13:47 10° NNE
Cosmos 2142 Rocket 4.4 15:09:26 10° N 15:15:39 73° E 15:21:55 10° SSE
Cosmos 1937 Rocket 4.4 15:12:25 10° N 15:16:44 26° ENE 15:17:51 24° E
NOSS 0 Rocket 3.9 15:10:51 10° SSW 15:17:01 90° WNW 15:23:13 10° NNE
ARIANE 6 FM1 Upper Stage 3.8 15:13:16 10° NW 15:17:26 49° WSW 15:21:38 10° SSE
Cosmos 2369 Rocket 4.2 15:16:47 10° NNE 15:17:08 10° NNE 15:17:08 10° NNE
SKYMED 2 3.6 15:14:51 10° N 15:19:13 83° WNW 15:23:33 10° SSW
Landsat 7 3.7 15:15:20 10° SSE 15:20:00 82° ENE 15:24:44 10° N
BlueWalker 3 3.9 15:17:59 10° NNW 15:20:09 15° N 15:20:46 14° NNE
NOAA 6 4.0 15:15:37 10° SSE 15:20:38 62° ENE 15:25:42 10° N
DNEPR-1 R/B 4.1 15:18:27 10° NNW 15:22:56 37° NE 15:24:12 31° E
Lacrosse 5 2.9 15:20:02 10° NW 15:24:56 48° SW 15:29:49 10° SSE
NOSS 5 (C) 4.1 15:22:11 10° NNW 15:25:22 66° NE 15:26:37 33° SE
Meteor 1-16 Rocket 4.3 15:20:54 10° NNW 15:26:21 76° W 15:31:56 10° S
Okean 2 3.3 15:27:04 10° S 15:30:59 81° W 15:34:58 10° N
Cosmos 1953 2.2 15:27:58 10° N 15:31:42 76° W 15:35:23 10° S
Cosmos 2084 Rocket 3.7 15:28:47 10° NW 15:32:47 62° WSW 15:36:43 10° SSE
CZ-4C R/B 1.8 15:29:42 10° SSW 15:33:44 52° ESE 15:35:14 37° ENE
SPOT 1/Viking Rocket 3.7 15:29:17 10° SE 15:34:13 48° ENE 15:39:10 10° N
Aureole 1 Rocket 4.3 15:31:01 10° NNW 15:38:45 69° ENE 15:45:38 10° SSE
Cosmos 1174 3.7 15:35:17 10° NNW 15:38:59 66° ENE 15:40:48 32° SE
Okean 1-7 2.8 15:37:12 10° S 15:41:27 75° E 15:43:56 25° NNE
ATLAS 5 CENTAUR R/B 3.0 15:40:24 10° S 15:41:04 14° SSE 15:41:04 14° SSE
RESURS DK-1 2.2 15:41:04 10° NNW 15:45:03 60° ENE 15:45:04 60° ENE
Cosmos 2237 Rocket 2.4 15:47:03 10° SSW 15:52:43 69° WNW 15:56:51 19° NNE
Nadezhda 4 Rocket 3.9 15:49:37 10° S 15:55:43 85° W 16:01:54 10° N
Cosmos 2195 Rocket 4.3 15:54:02 10° S 16:00:11 67° E 16:05:37 14° NNE
BREEZE-M DEB (TANK) 3.7 15:47:13 10° WSW 16:02:03 65° NNW 16:03:40 43° NE
Cosmos 1898 Rocket 3.4 15:58:31 10° NNW 16:03:50 90° SSE 16:09:08 10° SSE
Cosmos 2278 Rocket 3.0 15:58:46 10° NNW 16:04:16 52° WSW 16:09:43 10° S
BREEZE-M TANK 3.5 16:00:36 10° WNW 16:04:23 67° SSW 16:07:55 29° SE
Cosmos 1943 Rocket 2.4 15:59:02 10° NNW 16:04:40 69° WSW 16:10:13 10° SSE
Cosmos 841 Rocket 3.5 16:05:17 10° SSW 16:10:32 80° WNW 16:12:12 45° N
BREEZE-M DEB (TANK) 3.6 16:00:58 10° WSW 16:15:43 74° NNW 16:16:18 65° NNE
BREEZE-M DEB (TANK) 4.1 16:14:31 10° WNW 16:15:14 16° NW 16:15:14 16° NW
ISS -1.5 16:17:32 10° W 16:19:17 25° W 16:19:17 25° W
CBERS 1 LM4 rocket 4.5 16:24:46 68° SSW 16:25:22 79° WSW 16:30:35 10° NNW
ACS3 Solar Sail 3.2 16:26:55 10° SSW 16:32:46 38° W 16:38:42 10° NNW
ATLAS 2AS CENTAUR R/B 3.0 16:27:04 10° NNW 16:32:29 48° NNE 16:32:29 48° NNE
Cosmos 1092 Rocket 3.9 16:32:01 10° S 16:38:10 79° W 16:39:36 55° N
SL-16 R/B 2.8 16:33:58 10° SSW 16:37:57 48° SSW 16:37:57 48° SSW
Cosmos 2369 Rocket 4.4 16:58:05 10° NNW 16:58:55 14° NNW 16:58:55 14° NNW
Centaur D-1A AC-31 4.5 17:03:23 10° SSW 18:00:00 12° E 18:17:41 10° E
Centaur D-1A AC-31 4.5 17:03:23 10° SSW 18:00:01 12° E 18:17:41 10° E
Centaur D-1A AC-31 4.5 17:03:23 10° SSW 18:00:02 12° E 18:17:41 10° E
Centaur D-1A AC-31 4.5 17:03:23 10° SSW 18:00:01 12° E 18:17:40 10° E
CZ-4C R/B 4.3 17:18:41 10° W 17:20:18 18° WNW 17:20:18 18° WNW
